[[{"header":{"parameterUnit":"m.s-1","parameterCategory":1,"la1":30.2991,"la2":30.254,"lo1":-89.0895,"lo2":-89.0444,"dy":0.0017,"dx":0.0017,"nx":28,"ny":28,"refTime":"2023-11-12T09:00:00:Z","depth":0,"parameterNumber":2,"parameterNumberName":"U-component_of_WINDS"},"data":[0,0,0,0,0,0,0,0,0,0,0,0,0,0,0,0,0,0,0,0,0,0,0,0,0,0,0,0,0,0,0,0,0,0,0,0,0,0,0,0,0,0,0,0,0,0,0,0,0,0,0,0,0,0,0,0,0,0,-2.4678,-2.4679,0,-2.4779,-2.478,-2.4781,-2.4747,-2.4744,-2.4742,-2.474,-2.4845,-2.485,-2.4855,0,0,0,0,0,0,0,0,0,0,0,0,0,-2.4458,-2.4462,-2.4678,-2.4679,-2.468,-2.4779,-2.478,-2.4781,-2.4747,-2.4744,-2.4742,-2.4739,-2.4844,-2.485,-2.4855,0,0,0,0,0,0,0,0,0,0,0,0,0,-2.4556,-2.4463,-2.4678,-2.4675,-2.4676,-2.4778,-2.478,-2.4782,-2.4748,-2.4744,-2.4741,-2.4738,-2.4842,-2.4849,-2.4856,-2.4968,0,0,-2.4879,-2.4882,0,0,0,0,0,0,0,0,-2.455,-2.4564,-2.4674,-2.4675,-2.4676,-2.4747,-2.4741,-2.4844,-2.4748,-2.472,-2.474,-2.4736,-2.4815,-2.4825,-2.4851,-2.4973,-2.4977,-2.4879,-2.4884,-2.4887,-2.4889,0,0,0,0,0,0,0,-2.4543,-2.4559,-2.4718,-2.4676,-2.4677,-2.467,-2.468,-2.476,-2.4785,-2.4723,-2.472,-2.4733,-2.4815,-2.4844,-2.4853,-2.4979,-2.4879,-2.4885,-2.489,-2.4893,-2.52,-2.5203,0,0,0,0,0,0,-2.4536,-2.4554,-2.4715,-2.4721,-2.4604,-2.4676,-2.4688,-2.4728,-2.4784,-2.479,-2.4735,-2.4731,-2.4833,-2.4845,-2.4857,-2.4993,-2.4887,-2.4894,-2.4898,-2.5196,-2.52,-2.5204,0,0,0,0,0,0,-2.4531,-2.455,-2.471,-2.4637,-2.4656,-2.4684,-2.4729,-2.4731,-2.476,-2.4794,-2.4799,-2.476,-2.4831,-2.4846,-2.4941,-2.4996,-2.4897,-2.4903,-2.5191,-2.5197,-2.5202,-2.5266,0,0,0,0,0,0,-2.4525,-2.4549,-2.4591,-2.4638,-2.4661,-2.4793,-2.4732,-2.4736,-2.4772,-2.4767,-2.4818,-2.4824,-2.483,-2.493,-2.4948,-2.5005,-2.4909,-2.5187,-2.5194,-2.5201,-2.5259,-2.5273,-2.5285,0,0,0,0,0,-2.4517,-2.4605,-2.4593,-2.4613,-2.4714,-2.4796,-2.4809,-2.4813,-2.4777,-2.482,-2.4842,-2.4822,-2.4987,-2.494,-2.496,-2.502,-2.5183,-2.5192,-2.52,-2.5253,-2.527,-2.5285,0,0,0,0,0,0,-2.4564,-2.4611,-2.4599,-2.4704,-2.4746,-2.479,-2.4844,-2.4831,-2.4885,-2.4878,-2.4881,-2.4893,-2.4991,-2.5014,-2.4961,-2.5132,-2.508,-2.5093,-2.5113,-2.513,-2.5143,-2.5136,-2.4915,0,0,0,0,0,-2.4587,-2.4649,-2.4686,-2.4776,-2.4798,-2.4817,-2.4853,-2.4853,-2.4897,-2.4915,-2.4944,-2.4988,-2.505,-2.5091,-2.5149,-2.5261,-2.5273,-2.5312,-2.5325,-2.5336,-2.5348,-2.5411,-2.543,-2.5232,-2.5232,-2.5232,0,0,-2.4635,-2.4668,-2.4707,-2.4786,-2.4819,-2.4884,-2.4833,-2.4903,-2.4953,-2.4926,-2.5017,-2.504,-2.5089,-2.5194,-2.5241,-2.5216,-2.5404,-2.5346,-2.5355,-2.5361,-2.5422,-2.544,-2.5457,-2.5238,-2.5237,-2.5236,0,0,-2.4756,-2.4786,-2.4865,-2.4898,-2.4948,-2.4961,-2.498,-2.5025,-2.504,-2.5131,-2.5113,-2.5171,-2.5277,-2.5314,-2.5346,-2.5481,-2.5466,-2.55,-2.5569,-2.5631,-2.5647,-2.566,-2.5711,-2.5729,-2.5511,-2.5511,-2.5512,0,-2.4809,-2.4906,-2.4907,-2.498,-2.5016,-2.4994,-2.5075,-2.5108,-2.5175,-2.5201,-2.5171,-2.5305,-2.5336,-2.545,-2.5483,-2.5509,-2.5533,-2.5496,-2.5644,-2.5658,-2.5671,-2.5719,-2.5738,-2.5516,-2.5515,-2.5515,-2.5514,0,-2.497,-2.5038,-2.5096,-2.5161,-2.5203,-2.528,-2.5293,-2.5336,-2.5332,-2.5348,-2.5443,-2.548,-2.5546,-2.5573,-2.5569,-2.5687,-2.567,-2.5642,-2.5591,-2.5694,-2.574,-2.5758,-2.5521,-2.552,-2.5519,-2.5518,0,0,-2.5126,-2.519,-2.5212,-2.5242,-2.5295,-2.5348,-2.5423,-2.5488,-2.5526,-2.5572,-2.5638,-2.5728,-2.5703,-2.574,-2.574,-2.5794,-2.5902,-2.576,-2.5761,-2.5787,-2.6036,-2.6059,-2.608,-2.589,-2.5894,-2.5896,-2.6033,0,-2.5253,-2.5386,-2.539,-2.5512,-2.5576,-2.5555,-2.5622,-2.5662,-2.5679,-2.5736,-2.5754,-2.582,-2.578,-2.5803,-2.5855,-2.5877,-2.5952,-2.5867,-2.5953,-2.5956,-2.5945,-2.6104,-2.6128,-2.6255,-2.6051,-2.6054,-2.6056,0,-2.542,-2.5472,-2.5601,-2.5646,-2.5673,-2.5733,-2.5793,-2.5847,-2.5893,-2.5901,-2.5943,-2.5935,-2.6014,-2.5958,-2.6068,-2.601,-2.6045,-2.6061,-2.6066,-2.6077,-2.6015,-2.6122,-2.6296,-2.6316,-2.6084,-2.6081,-2.6079,0,-2.5524,-2.5626,-2.5717,-2.5743,-2.5797,-2.584,-2.5864,-2.5907,-2.5946,-2.5998,-2.6024,-2.6085,-2.612,-2.6168,-2.6178,-2.6135,-2.6289,-2.6232,-2.63,-2.63,-2.6336,-2.6334,-2.6521,-2.6353,-2.6353,-2.6353,-2.6352,0,-2.5668,-2.5748,-2.5765,-2.5821,-2.5911,-2.5913,-2.6002,-2.6024,-2.6062,-2.6123,-2.6108,-2.6166,-2.6174,-2.6234,-2.6242,-2.6333,-2.6348,-2.6358,-2.636,-2.6362,-2.6361,-2.6387,-2.638,-2.6358,-2.6357,-2.6356,-2.6355,0,-2.5801,-2.5814,-2.5913,-2.5956,-2.5968,-2.6033,-2.6071,-2.6125,-2.614,-2.6217,-2.6235,-2.6259,-2.6329,-2.6343,-2.6426,-2.6431,-2.6541,-2.6532,-2.6526,-2.6526,-2.6594,-2.6588,-2.6806,-2.6836,-2.6646,-2.6648,-2.6649,0,-2.5893,-2.5955,-2.6004,-2.6044,-2.6071,-2.6134,-2.6174,-2.6179,-2.6222,-2.6279,-2.6327,-2.6395,-2.645,-2.6563,-2.6589,-2.6652,-2.6647,-2.6719,-2.6656,-2.6657,-2.6652,-2.6649,-2.6656,-2.6732,-2.6734,-2.6735,-2.6737,0,-2.6057,-2.6061,-2.6118,-2.6179,-2.6227,-2.6275,-2.6321,-2.6354,-2.6365,-2.6414,-2.6485,-2.6527,-2.6612,-2.6681,-2.6744,-2.6771,-2.6757,-2.6756,-2.6775,-2.6779,-2.6774,-2.6781,-2.6562,-2.6751,-2.675,-2.6749,-2.6748,-2.6748,-2.6175,-2.6229,-2.6273,-2.6338,-2.6373,-2.6416,-2.647,-2.6491,-2.655,-2.6619,-2.6618,-2.6697,-2.6742,-2.6826,-2.6856,-2.6919,-2.6896,-2.6924,-2.6931,-2.6939,-2.6947,-2.6761,-2.693,-2.6929,-2.6929,-2.6929,-2.6928,0,-2.634,-2.6367,-2.6427,-2.6491,-2.6543,-2.6523,-2.6573,-2.6618,-2.6687,-2.673,-2.6784,-2.6867,-2.6934,-2.6964,-2.703,-2.7074,-2.707,-2.7092,-2.709,-2.7097,-2.6961,-2.6939,-2.7095,-2.7095,-2.7095,-2.7095,-2.7094,-2.7094,-2.6433,-2.6524,-2.6533,-2.6643,-2.6669,-2.6746,-2.6776,-2.6816,-2.6851,-2.6944,-2.6999,-2.7017,-2.7056,-2.7125,-2.7186,-2.7193,-2.7219,-2.7245,-2.725,-2.7123,-2.7106,-2.7091,-2.707,-2.725,-2.725,-2.7381,-2.7382,-2.7383]},{"header":{"parameterUnit":"m.s-1","parameterCategory":1,"la1":30.2991,"la2":30.254,"lo1":-89.0895,"lo2":-89.0444,"dy":0.0017,"dx":0.0017,"nx":28,"ny":28,"refTime":"2023-11-12T09:00:00:Z","depth":0,"parameterNumber":3,"parameterNumberName":"V-component_of_WINDS"},"data":[0,0,0,0,0,0,0,0,0,0,0,0,0,0,0,0,0,0,0,0,0,0,0,0,0,0,0,0,0,0,0,0,0,0,0,0,0,0,0,0,0,0,0,0,0,0,0,0,0,0,0,0,0,0,0,0,0,0,-3.5157,-3.5157,0,-3.5162,-3.5162,-3.5162,-3.5124,-3.5123,-3.5122,-3.5121,-3.5125,-3.5126,-3.5127,0,0,0,0,0,0,0,0,0,0,0,0,0,-3.5115,-3.5116,-3.5157,-3.5157,-3.5157,-3.5162,-3.5162,-3.5162,-3.5124,-3.5123,-3.5122,-3.512,-3.5125,-3.5126,-3.5128,0,0,0,0,0,0,0,0,0,0,0,0,0,-3.5128,-3.5116,-3.5157,-3.5139,-3.5138,-3.5162,-3.5162,-3.5162,-3.5124,-3.5123,-3.5121,-3.512,-3.5124,-3.5126,-3.5128,-3.517,0,0,-3.5133,-3.5133,0,0,0,0,0,0,0,0,-3.5127,-3.5129,-3.5142,-3.514,-3.5139,-3.5141,-3.5148,-3.5165,-3.5125,-3.5129,-3.5121,-3.5119,-3.5132,-3.5133,-3.5137,-3.517,-3.517,-3.5133,-3.5134,-3.5135,-3.5135,0,0,0,0,0,0,0,-3.5126,-3.5129,-3.5159,-3.5142,-3.514,-3.513,-3.513,-3.5151,-3.5139,-3.5129,-3.5126,-3.5127,-3.5131,-3.5135,-3.5137,-3.517,-3.5133,-3.5134,-3.5135,-3.5136,-3.5237,-3.5238,0,0,0,0,0,0,-3.5128,-3.5128,-3.5159,-3.5159,-3.5129,-3.5132,-3.5132,-3.5142,-3.5139,-3.5137,-3.5129,-3.5125,-3.5133,-3.5135,-3.5137,-3.5185,-3.5135,-3.5136,-3.5137,-3.5235,-3.5237,-3.5239,0,0,0,0,0,0,-3.5127,-3.5131,-3.5159,-3.5143,-3.5146,-3.5135,-3.5145,-3.5143,-3.5148,-3.5139,-3.5136,-3.5136,-3.5132,-3.5134,-3.5162,-3.5185,-3.5137,-3.5138,-3.5233,-3.5235,-3.5238,-3.5283,0,0,0,0,0,0,-3.5126,-3.5131,-3.5147,-3.5144,-3.5147,-3.5184,-3.5147,-3.5144,-3.5151,-3.5146,-3.5145,-3.5143,-3.5131,-3.5159,-3.5163,-3.5186,-3.514,-3.5231,-3.5234,-3.5237,-3.5279,-3.5286,-3.5293,0,0,0,0,0,-3.5125,-3.516,-3.5148,-3.5152,-3.5167,-3.5185,-3.5187,-3.5173,-3.5153,-3.5168,-3.5163,-3.5143,-3.5182,-3.5162,-3.5166,-3.519,-3.5229,-3.5233,-3.5237,-3.5276,-3.5285,-3.5293,0,0,0,0,0,0,-3.5166,-3.5159,-3.5146,-3.5181,-3.5184,-3.5179,-3.5199,-3.5183,-3.5191,-3.5187,-3.5169,-3.5169,-3.5199,-3.5197,-3.5176,-3.523,-3.5202,-3.5207,-3.523,-3.5239,-3.5245,-3.5245,-3.5141,0,0,0,0,0,-3.5179,-3.5195,-3.5188,-3.522,-3.5222,-3.521,-3.5218,-3.5206,-3.5208,-3.5209,-3.5206,-3.5209,-3.5221,-3.523,-3.5241,-3.5278,-3.5277,-3.5297,-3.5304,-3.5309,-3.5314,-3.5333,-3.5341,-3.5251,-3.5251,-3.5251,0,0,-3.5207,-3.5205,-3.5216,-3.5228,-3.5229,-3.5245,-3.5211,-3.523,-3.5242,-3.5212,-3.5237,-3.5235,-3.5237,-3.5269,-3.5283,-3.5269,-3.5338,-3.5314,-3.5319,-3.532,-3.5338,-3.5346,-3.5354,-3.5254,-3.5253,-3.5253,0,0,-3.5266,-3.5266,-3.5292,-3.5293,-3.5295,-3.5287,-3.5293,-3.529,-3.5287,-3.5312,-3.529,-3.5303,-3.5326,-3.5328,-3.5332,-3.539,-3.5372,-3.5394,-3.543,-3.5449,-3.5456,-3.5462,-3.5482,-3.549,-3.5398,-3.5399,-3.5399,0,-3.53,-3.5324,-3.5307,-3.5328,-3.5333,-3.5306,-3.5332,-3.5334,-3.534,-3.5344,-3.5328,-3.5354,-3.5354,-3.5386,-3.54,-3.5404,-3.5411,-3.5394,-3.5456,-3.5462,-3.5468,-3.5487,-3.5495,-3.5401,-3.5401,-3.5401,-3.54,0,-3.5365,-3.5382,-3.5403,-3.5408,-3.5416,-3.5439,-3.5426,-3.5436,-3.5423,-3.5416,-3.5442,-3.544,-3.545,-3.5457,-3.5445,-3.5487,-3.5478,-3.5459,-3.543,-3.5479,-3.5497,-3.5504,-3.5405,-3.5404,-3.5403,-3.5402,0,0,-3.5451,-3.5446,-3.5454,-3.5456,-3.5456,-3.5468,-3.549,-3.5499,-3.5508,-3.5512,-3.5529,-3.5548,-3.553,-3.5535,-3.5523,-3.554,-3.5585,-3.5518,-3.5518,-3.5531,-3.5631,-3.5645,-3.5654,-3.5573,-3.5575,-3.5576,-3.5631,0,-3.5508,-3.5544,-3.553,-3.5567,-3.5582,-3.5556,-3.5575,-3.5576,-3.5571,-3.5582,-3.5576,-3.5589,-3.5565,-3.5567,-3.5583,-3.5576,-3.5605,-3.5572,-3.5589,-3.559,-3.5589,-3.5663,-3.5678,-3.5731,-3.5638,-3.5639,-3.564,0,-3.5579,-3.5586,-3.5625,-3.5621,-3.5627,-3.5644,-3.5651,-3.5663,-3.5663,-3.5658,-3.5663,-3.5647,-3.5667,-3.5638,-3.5665,-3.5643,-3.5649,-3.5647,-3.5649,-3.565,-3.5618,-3.5666,-3.5747,-3.5755,-3.565,-3.565,-3.5649,0,-3.5638,-3.5657,-3.5682,-3.5685,-3.5681,-3.5693,-3.5692,-3.5691,-3.5697,-3.5703,-3.5707,-3.5716,-3.5721,-3.5727,-3.5714,-3.5694,-3.5743,-3.5713,-3.5739,-3.5739,-3.575,-3.575,-3.5833,-3.5755,-3.5754,-3.5754,-3.5754,0,-3.5703,-3.5728,-3.5708,-3.5724,-3.5751,-3.5733,-3.576,-3.5756,-3.5755,-3.577,-3.5748,-3.5762,-3.5743,-3.5755,-3.5744,-3.5768,-3.5771,-3.5767,-3.5764,-3.5769,-3.5769,-3.5772,-3.5768,-3.5756,-3.5756,-3.5755,-3.5755,0,-3.5773,-3.5761,-3.5787,-3.578,-3.5779,-3.5799,-3.5794,-3.5808,-3.58,-3.5818,-3.5821,-3.5809,-3.5822,-3.5809,-3.5821,-3.5814,-3.5846,-3.5838,-3.5846,-3.5844,-3.587,-3.5868,-3.5958,-3.5969,-3.5884,-3.5885,-3.5885,0,-3.5815,-3.5834,-3.5829,-3.5837,-3.5837,-3.585,-3.5856,-3.5839,-3.5846,-3.5848,-3.5862,-3.5873,-3.588,-3.5902,-3.5894,-3.5903,-3.5895,-3.5926,-3.5896,-3.59,-3.5895,-3.5894,-3.5896,-3.5932,-3.5933,-3.5934,-3.5934,0,-3.5892,-3.5884,-3.5894,-3.5902,-3.5909,-3.5915,-3.5918,-3.5926,-3.5908,-3.5917,-3.593,-3.5936,-3.5948,-3.5959,-3.5965,-3.5964,-3.5946,-3.5944,-3.595,-3.5956,-3.5959,-3.5957,-3.5863,-3.5942,-3.5941,-3.5941,-3.594,-3.594,-3.5949,-3.5964,-3.5962,-3.5974,-3.5974,-3.5978,-3.599,-3.5984,-3.5994,-3.6002,-3.5991,-3.6007,-3.6006,-3.6013,-3.6014,-3.6025,-3.6012,-3.6021,-3.6024,-3.6026,-3.603,-3.5957,-3.6026,-3.6026,-3.6026,-3.6026,-3.6026,0,-3.6024,-3.6021,-3.6032,-3.6037,-3.6046,-3.6028,-3.6031,-3.6039,-3.6053,-3.6054,-3.6062,-3.6076,-3.6086,-3.6079,-3.6087,-3.6098,-3.609,-3.6101,-3.61,-3.61,-3.6041,-3.6035,-3.6107,-3.6107,-3.6107,-3.6107,-3.6107,-3.6107,-3.6064,-3.6088,-3.608,-3.6104,-3.6101,-3.6116,-3.6119,-3.6122,-3.6122,-3.6139,-3.6147,-3.6142,-3.6139,-3.6147,-3.6156,-3.6153,-3.6158,-3.6171,-3.6166,-3.6112,-3.6104,-3.6096,-3.609,-3.6172,-3.6172,-3.6223,-3.6223,-3.6224]}]]